Vorticity
nan nan nan nan nan nan nan nan nan nan nan nan nan nan nan nan nan nan nan nan nan nan nan nan nan nan nan nan nan nan nan nan nan nan nan nan nan nan nan nan nan nan nan nan
nan 1 13 5 3 18 -2 2 1 3 8 7 3 16 29 6 7 10 6 6 13 11 7 7 10 13 18 1 8 8 7 7 6 4 8 9 8 8 10 11 9 9 8 nan
nan 18 -7 14 3 5 4 11 8 6 1 0 11 20 -5 -2 12 15 8 13 8 5 12 11 8 15 12 8 5 7 9 8 4 4 8 7 10 11 6 7 9 11 9 nan
nan 3 7 16 3 7 12 1 10 8 8 4 4 12 -5 7 9 3 15 12 7 13 12 8 11 10 8 16 8 8 8 7 7 7 7 7 6 8 7 7 11 15 12 nan
nan 13 10 -8 8 4 3 3 2 10 11 19 4 2 10 0 5 15 24 10 7 12 10 13 11 9 11 9 10 7 8 5 8 11 5 6 8 8 10 8 7 9 10 nan
nan 5 15 10 4 5 -1 6 12 15 8 15 11 4 23 22 22 19 3 8 11 9 11 8 11 8 9 11 8 8 7 9 8 8 8 7 6 6 8 7 10 9 7 nan
nan 4 7 11 6 9 8 4 8 12 13 5 0 13 12 13 22 30 10 7 10 5 11 10 7 8 6 13 11 9 8 8 9 10 9 8 8 9 8 10 9 10 11 nan
nan 9 7 4 11 10 11 5 5 4 6 10 16 19 11 6 11 11 10 8 7 6 8 16 9 12 6 5 15 16 10 10 9 10 12 7 10 14 12 12 9 11 11 nan
nan 7 15 13 5 7 6 8 9 10 -0 1 16 6 4 8 8 10 12 7 7 9 5 5 7 8 10 10 10 10 10 11 10 10 11 10 9 9 9 9 10 9 8 nan
nan 12 21 15 9 8 2 0 15 9 8 12 4 0 3 5 8 6 7 11 12 11 8 6 9 7 6 6 7 8 7 7 9 10 7 7 7 8 7 8 8 9 8 nan
nan 8 16 17 9 8 9 5 2 3 8 15 14 18 14 7 1 11 8 12 10 8 6 5 8 10 9 8 9 8 7 8 6 6 8 9 8 8 12 9 9 9 9 nan
nan 7 16 14 7 10 9 8 3 7 5 12 6 -2 5 20 24 11 10 9 9 9 8 6 6 7 7 6 6 8 9 7 8 8 9 10 8 9 10 9 9 9 9 nan
nan 2 9 17 11 7 8 7 2 1 8 11 12 8 -1 14 33 13 12 8 9 8 7 6 6 7 8 8 8 7 5 6 9 9 10 9 8 10 8 8 9 9 9 nan
nan 9 9 15 5 7 7 4 7 6 15 7 12 10 4 21 26 12 10 9 6 6 8 7 7 6 6 7 8 7 8 9 7 9 9 8 8 9 9 10 8 9 11 nan
nan 8 3 -3 7 19 25 15 6 7 2 7 8 23 24 20 18 13 9 7 8 8 6 6 6 7 6 7 6 7 7 7 7 9 9 9 8 8 10 9 9 9 10 nan
nan 6 11 15 13 3 4 2 13 23 5 3 9 15 6 24 16 13 11 9 8 8 8 8 7 7 6 6 7 7 7 8 7 7 9 8 9 8 10 7 8 9 10 nan
nan 8 11 11 10 14 9 8 11 7 10 10 16 11 10 9 9 15 12 10 9 9 9 9 7 7 8 8 8 9 9 7 7 7 8 8 9 9 8 8 7 10 9 nan
nan 8 7 12 14 5 -1 12 29 17 6 18 23 6 4 13 14 15 14 15 10 10 9 7 8 9 10 9 8 8 10 9 8 7 8 8 8 9 7 8 9 11 13 nan
nan 24 13 17 14 16 0 -5 16 15 11 0 19 29 9 -0 10 14 17 20 11 10 9 9 9 9 8 9 9 8 7 8 8 9 9 8 9 9 8 9 9 10 10 nan
nan 10 11 15 17 9 5 -0 8 12 4 -2 23 32 26 5 -2 12 23 16 13 10 10 11 11 10 7 7 7 7 9 8 9 9 9 9 9 9 8 9 13 11 8 nan
nan 5 9 7 7 24 20 5 3 15 16 7 11 7 12 20 12 10 18 15 14 15 14 11 11 9 10 9 8 7 8 9 9 9 9 9 9 11 10 9 10 8 9 nan
nan 15 15 6 11 12 11 16 7 17 3 14 19 11 8 10 11 13 14 16 14 14 12 11 6 11 10 8 9 10 9 10 8 8 8 8 9 8 9 11 8 10 11 nan
nan 10 5 9 27 9 7 20 19 -8 6 20 8 13 12 9 10 13 12 12 11 10 8 9 10 8 8 9 9 10 11 8 8 8 9 11 9 8 10 9 8 11 11 nan
nan 17 15 18 11 9 7 4 9 12 30 15 12 11 10 11 10 10 10 9 10 8 10 8 11 7 7 9 8 10 11 9 8 8 10 11 10 13 9 8 15 11 7 nan
nan 7 6 19 22 16 4 9 10 11 10 10 14 13 12 10 9 9 8 9 10 10 10 10 9 11 10 9 9 10 7 9 9 10 10 11 14 12 9 11 10 16 14 nan
nan nan nan nan nan nan nan nan nan nan nan nan nan nan nan nan nan nan nan nan nan nan nan nan nan nan nan nan nan nan nan nan nan nan nan nan nan nan nan nan nan nan nan nan
CAPE
55 38 105 22 19 46 8 79 141 118 105 0 18 1020 1208 915 854 874 847 910 1009 261 0 35 409 821 673 1701 1806 2108 2408 3433 2781 2852 2277 2784 2734 1420 1651 1715 1618 1199 1627 1085
124 83 70 85 15 119 64 136 75 23 0 0 64 70 758 606 749 743 1194 974 1129 1258 753 1249 886 866 1767 1946 2245 2622 2745 2948 2980 3098 3328 2899 3024 1939 1189 1729 2075 1986 2726 3094
152 222 215 276 70 4 0 48 12 88 110 85 0 1 104 163 418 667 837 1044 1221 1085 1036 1214 868 847 1032 912 2934 2873 3339 3373 3328 3284 3491 3146 3172 3385 1955 2644 2098 2404 2819 3158
169 112 115 290 79 12 51 8 3 0 0 195 0 12 302 132 464 828 889 1246 1221 1036 1123 1046 833 867 912 2143 2565 3336 3536 3903 3569 3893 3400 2802 2546 1979 2709 2921 825 2729 1953 2409
161 177 253 251 201 0 21 28 0 0 0 105 88 0 55 38 78 231 1078 1150 1021 967 742 856 1099 946 1207 1722 2549 3186 3999 4128 3730 4102 3563 2921 2884 2917 1969 3214 3051 3137 1284 3133
135 165 194 230 135 49 81 18 0 0 18 27 90 29 632 375 367 225 1326 1210 947 849 953 976 1520 1368 1645 1752 2509 3254 3999 3932 3882 3218 3847 3403 3181 3332 3013 3288 2662 2510 2917 2374
9 81 176 246 217 38 37 12 1 228 236 4 23 117 534 477 492 1113 1410 1185 983 1151 1116 1135 1697 1824 1908 2368 2303 3283 3820 3657 3450 3526 3423 2942 3435 3395 3153 3063 3099 2352 2510 2360
0 0 12 67 11 44 69 0 12 79 53 136 145 130 633 617 627 914 1129 1010 1034 849 1148 1178 1324 1737 2616 2774 2978 2821 3263 3370 3503 3133 2919 2827 2600 2865 2340 2060 2544 2906 3074 2825
0 0 0 0 0 0 15 0 1 23 60 127 590 1052 933 718 824 828 1010 1008 1099 943 1181 2455 2672 2961 2958 3096 3233 3323 3310 3097 3209 3017 3018 2594 2653 2177 1875 2054 2132 1190 1278 693
0 0 0 0 0 0 0 1 30 11 59 33 666 855 1130 391 1244 1057 1373 1314 1700 1123 1935 2364 2140 2380 2335 2314 2333 2492 2384 2041 2046 1922 1790 1312 1072 837 509 520 465 329 190 267
0 0 0 0 0 0 0 0 1 0 4 78 132 192 609 272 1028 1187 1318 1619 1589 1924 1896 1807 1640 1456 1162 817 690 496 317 385 225 143 144 38 0 0 12 6 1 28 1 23
0 0 0 0 0 0 0 0 0 0 80 68 105 197 84 11 835 1283 1476 1621 1885 1904 1283 727 408 162 3 17 9 3 0 0 0 0 0 0 0 0 0 3 7 17 17 12
0 0 0 6 0 0 0 12 81 17 47 72 65 271 134 81 947 1450 1544 1681 2364 1521 901 359 17 134 64 116 122 2 0 0 0 0 0 0 0 0 6 10 12 17 21 23
0 0 0 117 107 8 35 14 0 0 54 21 15 65 13 17 1313 1492 1768 2132 2055 1746 1166 198 131 313 622 783 525 197 0 0 0 0 0 0 0 0 2 17 25 25 31 41
0 0 0 0 8 19 122 0 0 24 37 12 58 80 134 18 806 1545 2048 2149 2305 1628 695 293 341 884 918 970 721 344 24 0 0 0 0 0 1 9 20 14 13 18 24 23
0 0 0 0 0 1 20 0 32 9 2 0 0 441 339 304 599 1464 1952 2178 2287 1639 990 432 873 1210 1101 1069 920 514 115 1 0 0 0 0 11 16 18 14 15 22 18 26
0 0 0 0 0 26 31 10 7 0 0 1 0 447 431 533 417 687 1870 2427 2301 1619 1163 712 899 1289 1371 1309 1187 526 235 0 0 0 0 0 11 21 10 20 11 8 24 4
0 19 1 0 0 0 13 372 138 10 17 138 270 373 449 710 487 551 964 2732 2526 1951 1648 1310 1145 1566 1750 1283 875 359 3 0 0 0 0 1 1 5 15 11 4 7 28 27
33 24 1 49 103 124 153 376 225 234 361 218 237 123 5 541 328 633 786 2688 2661 2302 2019 1852 1506 1538 1793 1346 601 235 0 0 0 0 0 0 0 4 11 12 28 29 22 20
242 744 195 469 516 266 208 64 26 52 227 71 173 276 699 558 759 1474 1053 2346 2204 2237 2109 1932 1597 1324 1044 664 59 68 0 0 0 0 0 0 1 4 8 24 32 43 11 14
293 164 95 65 273 113 221 110 9 42 395 8 178 706 1837 1947 1986 1667 1471 1737 2111 2394 2343 1993 1735 1488 925 317 13 25 0 0 0 0 0 0 1 10 17 41 43 45 29 29
394 183 256 589 467 667 248 115 225 759 156 434 497 948 1734 1339 1283 1315 1633 1752 2001 2258 1647 1477 1425 908 520 233 0 0 0 0 0 0 0 0 2 0 5 18 15 20 22 15
269 126 314 655 881 904 477 334 218 44 392 756 786 569 946 1119 1356 1459 1608 2057 2029 1720 1543 1019 747 639 229 0 0 0 0 0 0 0 4 17 12 8 1 9 9 23 50 8
0 155 878 408 551 100 393 375 632 604 555 591 552 669 1057 1328 1437 1488 1527 1525 1446 1226 992 546 508 383 188 1 0 0 0 0 0 0 6 14 18 16 26 0 7 43 8 0
32 215 56 20 769 463 671 760 755 814 672 725 678 967 1130 1239 1183 1064 1096 1346 1081 1007 754 769 742 541 359 52 0 0 0 0 0 0 5 6 0 5 16 14 4 3 17 0
420 369 16 159 1596 2503 1727 916 704 724 861 780 889 801 736 720 799 968 980 1115 1114 941 782 771 391 256 61 1 0 0 0 0 0 0 0 0 0 0 3 11 3 0 0 0